Probability
0 0 0 0 0 0 0 0 0 0 0 0 0 0 0 0 0 0 0 0 0 0 0 1 2 2 1 0 0 0 0 0 0 0 0 0 0 0 0 0 0 0 0 0 0 0 0 0 0
0 0 0 0 0 0 0 0 0 0 0 0 0 0 0 0 0 0 0 0 0 0 0 1 2 2 1 0 0 0 0 0 0 0 0 0 0 0 0 0 0 0 0 0 0 0 0 0 0
0 0 0 0 0 0 0 0 0 0 0 0 0 0 0 0 0 0 0 0 0 0 0 1 2 2 1 0 0 0 0 0 0 0 0 0 0 0 0 0 0 0 0 0 0 0 0 0 0
0 0 0 0 0 0 0 0 0 0 0 0 0 0 0 0 0 0 0 0 0 0 0 0 1 1 0 0 0 0 0 0 0 0 0 0 0 0 0 0 0 0 0 0 0 0 0 0 0
0 0 0 0 0 0 0 0 0 0 0 0 0 0 0 0 0 0 0 0 0 0 0 0 0 0 0 0 0 0 0 0 0 0 0 0 0 0 0 0 0 0 0 0 0 0 0 0 0
0 0 0 0 0 0 0 0 0 0 0 0 0 0 0 0 0 0 0 0 0 0 0 0 0 0 0 0 0 0 0 0 0 0 0 0 0 0 0 0 0 0 0 0 0 0 0 0 0
0 0 0 0 0 0 0 0 0 0 0 0 0 0 0 0 0 0 0 0 0 0 0 0 0 0 0 0 0 0 0 0 0 0 0 0 0 0 0 0 0 0 0 0 0 0 0 0 0
0 0 0 0 0 0 0 0 0 0 0 0 0 0 0 0 0 0 0 0 0 0 0 0 0 0 0 0 0 0 0 0 0 0 0 0 0 0 0 0 0 0 0 0 0 0 0 0 0
0 0 0 0 0 0 0 0 0 0 0 0 0 0 0 0 0 0 0 0 0 0 0 0 0 0 0 0 0 0 0 0 0 0 0 0 0 0 0 0 0 0 0 0 0 0 0 0 0
0 0 0 0 0 0 0 0 0 0 0 0 0 0 0 0 0 0 0 0 0 0 0 0 0 0 0 0 0 0 0 0 0 0 0 0 0 0 0 0 0 0 0 0 0 0 0 0 0
0 0 0 0 0 0 0 0 0 0 0 0 0 0 0 0 0 0 0 0 0 0 0 0 0 0 0 0 0 0 0 0 0 0 0 0 0 0 0 0 0 0 0 0 0 0 0 0 0
0 0 0 0 0 0 0 0 0 0 0 0 0 0 0 0 0 0 0 0 0 0 0 0 0 0 0 0 0 0 0 0 0 0 0 0 0 0 0 0 0 0 0 0 0 0 0 0 0
0 0 0 0 0 0 0 0 0 0 0 0 0 0 0 0 0 0 0 0 0 0 0 0 0 0 0 0 0 0 0 0 0 0 0 0 0 0 0 0 0 0 0 0 0 0 0 0 0
0 0 0 0 0 0 0 0 0 0 0 0 0 0 0 0 0 0 0 0 0 0 0 0 0 0 0 0 0 0 0 0 0 0 0 0 0 0 0 0 0 0 0 0 0 0 0 0 0
0 0 0 0 0 0 0 0 0 0 0 0 0 0 0 0 0 0 0 0 0 0 0 0 0 0 0 0 0 0 0 0 0 0 0 0 0 0 0 0 0 0 0 0 0 0 0 0 0
0 0 0 0 0 0 0 0 0 0 0 0 0 0 0 0 0 0 0 0 0 0 0 0 0 0 0 0 0 0 0 0 0 0 0 0 0 0 0 0 0 0 0 0 0 0 0 0 0
0 0 0 0 0 0 0 0 0 0 0 0 0 0 0 0 0 0 0 0 0 0 0 0 0 0 0 0 0 0 0 0 0 0 0 0 0 0 0 0 0 0 0 0 0 0 0 0 0
0 0 0 0 0 0 0 0 0 0 0 0 0 0 0 0 0 0 0 0 0 0 0 0 0 0 0 0 0 0 0 0 0 0 0 0 0 0 0 0 0 0 0 0 0 0 0 0 0
0 0 0 0 0 0 0 0 0 0 0 0 0 0 0 0 0 0 0 0 0 0 0 0 0 0 0 0 0 0 0 0 0 0 0 0 0 0 0 0 0 0 0 0 0 0 0 0 0
0 0 0 0 0 0 0 0 0 0 0 0 0 0 0 0 0 0 0 0 0 0 0 0 0 0 0 0 0 0 0 0 0 0 0 0 0 0 0 0 0 0 0 0 0 0 0 0 0
0 0 0 0 0 0 0 0 0 0 0 0 0 0 0 0 0 0 0 0 0 0 0 0 0 0 0 0 0 0 0 0 0 0 0 0 0 0 0 0 0 0 0 0 0 0 0 0 0
0 0 0 0 0 0 0 0 0 0 0 0 0 0 0 0 0 0 0 0 0 0 0 0 0 0 0 0 0 0 0 0 0 0 0 0 0 0 0 0 0 0 0 0 0 0 0 0 0
0 0 0 0 0 0 0 0 0 0 0 0 0 0 0 0 0 0 0 0 0 0 0 0 0 0 0 0 0 0 0 0 0 0 0 0 0 0 0 0 0 0 0 0 0 0 0 0 0
0 0 0 0 0 0 0 0 0 0 0 0 0 0 0 0 0 0 0 0 0 0 0 0 0 0 0 0 0 0 0 0 0 0 0 0 0 0 0 0 0 0 0 0 0 0 0 0 0
0 0 0 0 0 0 0 0 0 0 0 0 0 0 0 0 0 0 0 0 0 0 0 0 0 0 0 0 0 0 0 0 0 0 0 0 0 0 0 0 0 0 0 0 0 0 0 0 0
0 0 0 0 0 0 0 0 0 0 0 0 0 0 0 0 0 0 0 0 0 0 0 0 0 0 0 0 0 0 0 0 0 0 0 0 0 0 0 0 0 0 0 0 0 0 0 0 0
0 0 0 0 0 0 0 0 0 0 0 0 0 0 0 0 0 0 0 0 0 0 0 0 0 0 0 0 0 0 0 0 0 0 0 0 0 0 0 0 0 0 0 0 0 0 0 0 0
0 0 0 0 0 0 0 0 0 0 0 0 0 0 0 0 0 0 0 0 0 0 0 0 0 0 0 0 0 0 0 0 0 0 0 0 0 0 0 0 0 0 0 0 0 0 0 0 0
0 0 0 0 0 0 0 0 0 0 0 0 0 0 0 0 0 0 0 0 0 0 0 0 0 0 0 0 0 0 0 0 0 0 0 0 0 0 0 0 0 0 0 0 0 0 0 0 0
0 0 0 0 0 0 0 0 0 0 0 0 0 0 0 0 0 0 0 0 0 0 0 0 0 0 0 0 0 0 0 0 0 0 0 0 0 0 0 0 0 0 0 0 0 0 0 0 0
Wind_Speed
3 3 4 4 7 8 11 8 6 6 6 4 5 6 6 5 3 2 5 14 16 19 18 20 18 18 17 16 15 14 14 13 13 13 12 12 12 12 12 12 13 13 13 13 13 14 14 14 14
3 4 5 6 8 10 9 9 10 8 4 5 6 5 6 4 2 6 9 14 18 19 17 18 19 18 17 17 16 15 14 13 13 12 12 12 12 12 12 12 12 12 13 13 13 13 13 13 13
4 4 6 6 9 11 7 7 9 5 5 6 6 4 3 4 5 8 10 17 18 18 16 18 19 18 18 17 16 16 15 14 13 12 12 12 12 12 12 12 12 12 12 12 12 12 12 13 12
5 5 6 10 14 12 7 4 5 7 6 6 7 6 4 4 3 8 15 18 19 18 16 18 19 18 18 17 17 16 15 13 13 12 11 11 11 12 11 11 11 11 11 11 11 11 11 11 11
4 6 10 12 15 11 9 7 6 8 8 8 8 6 7 5 5 11 16 18 18 18 16 18 18 19 18 18 17 16 14 13 13 12 12 12 11 11 11 11 11 11 11 10 10 10 10 10 10
6 7 11 14 14 11 10 9 9 10 9 8 8 8 7 6 9 13 16 16 17 16 15 17 18 17 18 17 17 16 15 14 13 12 12 12 12 11 11 10 10 10 10 10 9 9 9 9 9
8 9 13 14 12 12 10 9 12 11 12 10 8 8 8 9 10 14 15 15 15 15 15 15 16 16 16 16 16 15 14 14 13 12 12 12 11 11 10 10 9 9 9 8 8 8 8 8 8
7 7 13 14 13 12 8 8 8 11 10 5 7 9 9 13 13 14 14 14 14 14 14 14 15 15 15 14 14 14 13 13 13 12 11 11 10 10 10 9 9 8 8 7 7 7 7 7 7
7 10 14 14 12 9 8 9 6 4 6 6 5 0 5 17 17 16 14 13 14 14 14 14 15 14 14 13 13 13 12 12 12 11 11 10 8 9 8 8 8 8 7 6 6 6 6 5 6
10 14 18 11 10 8 8 9 8 8 10 9 7 5 10 16 18 19 19 19 19 18 17 14 15 14 13 11 11 10 10 11 10 10 11 8 7 6 6 9 6 6 6 6 6 5 4 2 3
12 15 14 13 10 8 8 8 8 10 12 13 14 14 15 17 18 19 19 20 20 19 17 16 15 14 13 10 9 7 7 8 9 10 10 7 6 5 5 5 6 6 5 4 5 4 2 1 1
13 15 14 12 11 10 10 8 9 12 10 5 9 14 18 20 21 21 20 19 18 18 19 17 16 14 14 11 9 8 7 7 7 9 10 8 5 6 5 4 5 4 3 3 3 1 2 1 1
20 15 14 13 12 12 11 12 10 12 9 3 6 14 18 20 21 19 18 17 18 19 19 18 17 16 14 12 9 9 9 8 9 8 9 9 7 7 6 5 5 5 3 3 3 2 2 1 1
14 17 15 14 14 12 13 14 12 13 10 8 10 14 17 19 20 18 17 18 19 19 19 19 19 17 15 13 11 10 9 9 9 9 10 11 8 7 6 6 5 5 4 3 3 3 2 1 1
12 14 17 17 16 13 12 18 20 15 12 12 13 14 15 17 18 19 20 20 20 19 19 19 19 18 17 16 14 10 9 9 9 9 11 11 9 8 7 6 6 5 5 4 3 3 2 2 1
12 15 17 17 17 15 15 21 18 15 16 17 16 15 15 16 18 18 19 18 18 18 19 19 16 18 18 16 13 10 10 10 9 9 9 12 11 10 8 7 6 6 5 4 4 3 3 2 2
13 18 21 16 16 15 19 19 14 13 16 18 17 17 16 16 18 18 18 18 18 18 19 19 19 20 18 17 13 11 10 10 9 9 9 11 12 12 9 7 6 7 5 5 4 4 3 3 2
19 21 20 20 14 17 20 20 14 12 15 18 18 17 16 17 18 18 18 18 18 18 18 19 19 19 18 14 11 9 10 10 9 9 10 12 11 13 11 8 9 8 6 6 6 5 4 3 2
18 20 20 17 12 16 20 21 19 16 15 17 18 18 18 18 17 16 16 17 17 17 19 20 20 19 16 13 12 12 12 11 10 10 12 13 13 13 12 9 9 8 7 8 8 6 5 4 3
20 20 19 13 10 13 16 21 20 19 19 18 19 19 19 18 16 15 15 16 18 19 20 20 20 20 19 15 14 12 12 10 10 9 11 13 14 14 11 12 9 9 8 9 9 7 5 4 4
22 22 19 13 9 11 11 18 21 19 19 19 19 19 19 18 18 17 16 17 18 19 21 18 21 21 20 18 12 10 9 8 9 11 11 14 15 14 13 13 11 10 10 9 9 9 9 5 5
22 20 17 13 11 9 12 13 17 17 18 20 21 20 20 19 18 17 16 17 18 19 18 20 20 20 20 19 16 17 14 13 15 12 11 13 15 15 14 14 13 11 10 10 10 10 8 7 5
17 13 15 15 13 11 12 13 13 13 18 20 20 21 20 19 18 17 17 16 17 17 17 18 19 20 20 20 20 19 16 14 11 12 13 13 13 15 15 14 13 12 10 11 10 10 10 8 7
11 9 7 9 10 15 19 16 14 14 18 17 17 18 17 17 16 16 15 14 14 14 15 16 18 19 20 20 20 20 20 17 15 15 13 12 10 12 15 15 13 13 11 12 11 10 11 9 8
15 12 8 10 12 14 15 17 15 13 14 16 16 16 16 15 14 14 15 14 14 15 16 16 18 19 19 20 20 20 20 19 18 16 15 13 11 11 14 14 14 12 12 11 11 10 10 11 10
19 19 13 10 12 11 12 18 13 12 13 14 15 14 12 13 13 14 14 14 14 15 16 17 18 19 19 19 19 19 19 14 13 15 13 13 11 12 14 15 14 13 13 11 11 9 10 9 10
17 18 14 9 7 10 11 11 11 9 13 15 16 15 14 14 13 13 13 13 13 14 15 17 18 18 18 19 19 18 18 16 15 15 14 11 11 10 14 14 14 14 13 12 11 8 10 9 9
15 13 10 10 10 12 13 16 11 13 18 18 18 17 16 14 13 13 12 12 11 11 13 14 16 17 17 17 16 13 16 16 15 13 14 13 13 12 12 13 13 13 12 12 11 9 9 9 9
14 15 10 9 10 11 11 11 9 13 15 17 18 16 15 14 13 12 11 10 10 10 11 12 14 14 15 16 16 15 15 15 14 13 14 13 12 12 12 13 12 12 12 12 11 10 10 10 9
14 16 15 12 11 13 12 7 4 7 8 9 10 9 9 10 9 9 9 9 9 10 11 12 12 13 14 14 14 14 14 14 14 13 13 12 12 12 12 11 12 12 11 11 12 11 10 10 10
Wind_Direction
192 208 210 213 217 226 232 218 213 186 191 186 173 186 202 192 202 64 98 153 147 152 156 158 158 156 153 148 143 138 135 129 124 121 116 113 111 107 102 98 95 92 90 90 88 86 84 82 79
208 199 211 219 230 223 221 214 210 203 164 145 170 187 192 181 72 101 140 152 151 152 156 158 156 157 154 149 146 142 138 132 127 124 122 119 114 108 104 98 96 94 92 91 90 87 85 84 82
189 222 221 217 228 229 216 199 205 185 173 182 171 191 197 133 129 135 143 153 153 153 157 153 157 157 155 151 148 144 139 135 132 128 124 120 115 110 107 103 100 98 96 95 93 91 88 85 83
200 203 222 233 229 229 238 188 171 170 175 198 185 166 146 72 105 128 143 156 156 156 157 153 160 157 153 152 150 147 143 141 138 134 131 126 121 116 111 108 106 104 103 100 98 94 90 88 84
220 219 219 228 234 231 232 235 204 196 182 182 194 170 141 104 103 135 152 159 158 157 158 156 162 159 156 155 153 151 149 147 144 141 137 131 126 122 118 116 114 110 108 105 101 98 93 90 86
207 222 226 227 227 228 227 220 216 217 200 185 193 175 134 121 143 149 155 161 160 158 159 158 163 161 160 159 157 155 153 152 148 146 142 136 133 130 127 124 120 115 110 107 103 99 96 91 85
223 223 235 235 233 228 224 212 216 215 206 194 191 178 143 148 147 151 157 160 161 161 163 163 165 166 164 163 161 159 157 155 152 151 146 141 138 137 134 129 124 119 113 109 106 102 97 91 85
234 235 234 231 231 230 213 203 221 222 213 180 196 194 166 152 148 151 154 161 164 167 170 170 170 170 168 166 162 160 159 158 156 153 145 141 143 143 138 139 130 125 119 113 107 101 96 89 83
220 232 230 222 224 224 198 202 200 215 194 173 191 85 95 134 147 151 156 165 171 176 177 178 176 174 171 169 162 163 161 159 157 152 141 151 160 153 152 135 133 134 127 120 109 101 97 103 100
212 229 231 230 229 225 201 209 189 186 194 187 177 133 134 149 159 165 170 175 179 182 183 182 181 176 173 169 168 172 170 168 174 166 164 172 166 151 144 123 134 134 129 126 109 108 129 185 129
216 233 234 232 229 233 219 212 199 206 207 206 196 172 159 167 174 180 182 183 184 183 182 184 184 180 177 174 175 173 172 174 179 175 172 172 164 154 162 156 155 156 162 158 143 173 156 132 71
227 233 236 233 221 225 227 220 212 220 221 211 207 169 168 178 185 189 189 188 184 185 187 187 185 185 184 181 179 177 176 177 178 178 178 175 174 175 170 175 170 172 175 169 180 185 153 162 145
227 232 230 234 228 228 231 230 232 230 229 220 169 167 182 188 194 196 193 189 187 189 188 189 188 188 187 186 183 184 184 182 181 181 185 184 182 182 177 180 178 183 179 184 193 200 183 203 212
227 230 231 228 226 226 231 237 235 236 223 208 190 189 195 196 198 194 194 194 194 193 191 190 191 191 189 189 189 189 188 186 186 185 190 191 190 187 184 185 186 187 190 194 204 205 209 217 232
231 231 233 229 225 223 229 239 232 232 220 217 211 207 204 205 202 201 199 199 197 195 192 192 193 192 193 194 194 192 191 189 190 189 192 193 194 190 190 192 190 192 193 197 206 201 219 227 232
213 224 229 222 218 216 219 241 228 220 221 225 222 215 211 212 211 210 206 204 201 197 194 193 191 194 196 195 195 194 193 192 193 192 193 196 197 194 194 196 197 193 191 198 202 209 213 218 236
208 220 224 221 211 208 217 241 233 214 218 226 225 222 218 218 217 216 211 208 203 199 195 193 193 196 196 196 194 195 194 196 196 194 196 198 199 197 199 201 199 194 198 201 201 213 220 225 234
206 217 221 220 205 210 221 233 230 215 220 227 227 225 223 222 220 215 212 209 204 201 198 196 195 198 195 195 194 194 198 199 198 198 200 198 199 199 201 202 203 199 201 203 205 205 211 232 232
221 221 223 223 212 214 227 235 234 226 223 230 230 228 226 227 226 217 211 206 202 200 200 199 197 197 193 192 193 194 198 199 200 201 202 201 201 200 203 203 202 201 206 208 209 205 205 213 215
225 225 226 227 218 224 236 241 240 235 230 231 232 231 229 228 224 214 206 202 201 200 200 200 199 196 195 195 195 198 199 200 201 199 204 203 203 202 203 206 203 201 207 210 209 206 210 203 207
220 221 219 216 205 223 244 247 237 233 231 232 233 233 232 227 225 216 207 203 201 202 200 198 198 197 197 195 192 190 192 194 197 200 202 204 203 203 204 207 206 204 206 208 208 206 209 209 202
220 219 220 214 211 217 220 250 234 226 225 227 229 229 230 228 227 223 214 206 203 203 199 199 198 197 196 193 193 191 194 197 201 199 200 201 203 204 205 206 207 206 207 209 208 207 209 211 207
218 209 216 219 227 237 224 245 245 218 227 226 226 227 227 226 225 222 217 210 205 200 196 197 197 197 195 195 197 197 202 205 201 198 200 200 200 204 205 206 206 208 208 210 207 205 206 210 213
195 182 203 220 225 236 224 230 249 218 224 224 222 223 223 222 221 221 217 210 203 196 193 194 196 197 195 196 198 201 203 203 198 197 197 196 196 201 205 206 207 208 208 208 207 205 207 209 212
190 176 186 197 209 229 213 223 243 230 223 226 225 221 221 220 218 215 210 203 199 193 192 193 195 196 195 196 200 202 204 204 203 199 200 196 195 198 204 203 206 207 207 207 204 204 207 209 210
197 195 201 203 209 214 201 226 238 228 223 227 232 231 226 221 215 211 208 202 198 193 191 192 194 195 194 196 200 202 203 203 205 205 202 200 200 201 201 202 205 206 204 203 203 205 207 208 210
198 207 219 237 239 226 212 232 244 231 225 224 225 225 225 219 212 210 206 202 197 192 191 192 192 193 193 195 197 200 201 203 205 204 205 205 204 201 199 200 203 204 203 202 200 205 205 205 210
209 196 196 209 208 222 223 227 226 204 213 215 218 219 220 216 211 208 203 197 193 191 189 191 192 192 192 193 195 197 199 202 203 202 203 204 203 199 197 198 202 202 201 200 200 203 204 204 207
197 199 199 207 229 228 230 230 216 215 210 212 215 213 212 207 203 200 197 191 185 182 184 186 188 189 190 192 193 195 197 199 201 202 203 203 202 198 197 198 199 200 200 200 200 203 199 205 207
206 201 199 201 205 223 237 234 156 215 220 217 216 210 209 204 198 193 186 180 177 179 181 183 185 187 188 188 190 193 194 194 197 199 200 199 199 197 197 195 196 199 199 199 201 202 201 205 208